{"data":{"norad_id":43071,"epoch":"2026-05-25T00:19:51.340224Z","epoch_age_seconds":70299,"freshness":"FRESH","line1":"1 43071U 17083B   26145.01378866  .00000061  00000+0  14752-4 0  9990","line2":"2 43071  86.3970 331.3998 0002435  91.7860 268.3614 14.34217678440811","mean_motion":14.34217678,"eccentricity":0.0002435,"inclination_deg":86.397,"raan_deg":331.3998,"arg_perigee_deg":91.786,"mean_anomaly_deg":268.3614,"bstar":1.4752e-5,"rev_number":44081,"period_min":100.40316906483,"perigee_km":775.92495547205,"apogee_km":779.40983221185,"semimajor_km":7155.804393842,"source":"CELESTRAK","updated_at":"2026-05-25T13:38:14.804822Z"}}